This is the latest recevied weather packets stored in our database for station/object VE3TEJ. If no packets are shown the sender has not sent any weather packets the latest 10 day(s).
| Time | Temp. | Humidity | Pressure | Rain* | Wind** | Luminosity | Snow |
|---|---|---|---|---|---|---|---|
| 1778083358 | 10° C | 66% | 1009.5 hPa | 0 mm | - | - | - |
| 1778083058 | 10.56° C | 66% | 1009.4 hPa | 0 mm | - | - | - |
| 1778082757 | 10.56° C | 68% | 1009.3 hPa | 0 mm | - | - | - |
| 1778082457 | 10.56° C | 69% | 1009.3 hPa | 0 mm | - | - | - |
| 1778082159 | 10° C | 69% | 1009.1 hPa | 0 mm | - | - | - |
| 1778081858 | 10° C | 69% | 1009.1 hPa | 0 mm | - | - | - |
| 1778081558 | 10° C | 70% | 1009.2 hPa | 0 mm | - | - | - |
| 1778081257 | 10° C | 72% | 1009 hPa | 0 mm | - | - | - |
| 1778080957 | 10° C | 71% | 1009.1 hPa | 0 mm | - | - | - |
| 1778080659 | 10° C | 71% | 1009.1 hPa | 0 mm | - | - | - |
| 1778080358 | 10.56° C | 69% | 1009.1 hPa | 0 mm | - | - | - |
| 1778080058 | 10° C | 73% | 1008.9 hPa | 0 mm | - | - | - |
| 1778079757 | 10.56° C | 72% | 1008.8 hPa | 0 mm | - | - | - |
| 1778079459 | 10° C | 72% | 1008.7 hPa | 0 mm | - | - | - |
| 1778079159 | 10° C | 74% | 1008.5 hPa | 0 mm | - | - | - |
| 1778078858 | 10° C | 73% | 1008.4 hPa | 0 mm | - | - | - |
| 1778078558 | 10° C | 78% | 1008.3 hPa | 0 mm | - | - | - |
| 1778078257 | 8.89° C | 77% | 1008.5 hPa | 0 mm | - | - | - |
| 1778077959 | 8.89° C | 79% | 1008.6 hPa | 0 mm | - | - | - |
| 1778077658 | 9.44° C | 81% | 1008.5 hPa | 0 mm | - | - | - |
| 1778077358 | 8.89° C | 82% | 1008.3 hPa | 0 mm | - | - | - |
| 1778077058 | 8.33° C | 84% | 1008.3 hPa | 0 mm | - | - | - |
| 1778076757 | 7.78° C | 84% | 1008.2 hPa | 0 mm | - | - | - |
| 1778076459 | 7.78° C | 85% | 1008.2 hPa | 0 mm | - | - | - |
| 1778076158 | 7.78° C | 85% | 1007.9 hPa | 0 mm | - | - | - |
* Rain latest hour (hover to see other rain measurements)
** Current wind speed in m/s (hover to see current wind gust speed)